GFSSE_700_temp_273.txt.gz
Temp
12 11 11 11 11 10 10 10 10 9 9 9 9 9 9 9 8 8 9 9 9 9 9 9 9 9 9 8 9 9 8 9 9 9 9 9 9 9 9 9 9 9 9
12 12 11 11 11 10 10 10 10 9 10 9 9 9 9 9 9 8 8 8 9 9 9 9 9 9 8 8 8 8 9 9 9 9 9 9 9 9 9 9 9 9 9
12 12 12 11 11 10 10 10 10 10 10 10 9 9 9 9 9 8 8 8 9 9 9 9 9 9 9 8 8 8 9 9 9 9 9 9 9 9 9 9 9 9 9
12 12 12 11 11 10 10 10 10 10 10 10 10 9 9 9 9 8 8 9 9 9 9 9 9 9 9 9 9 9 9 9 9 8 7 8 9 8 9 9 9 9 9
12 12 12 12 11 11 10 10 10 10 10 10 10 9 9 9 9 9 8 9 9 9 9 9 9 9 9 9 9 9 9 8 8 9 8 8 8 8 8 9 9 9 9
11 11 12 12 11 11 10 10 10 10 10 10 9 9 9 9 9 9 8 9 9 9 9 9 9 9 9 9 8 8 8 8 8 9 8 8 8 8 8 8 9 8 9
9 11 12 12 11 11 11 10 10 10 10 10 10 10 9 9 9 9 9 8 8 8 8 8 8 8 9 9 8 8 8 8 8 8 8 8 8 8 8 8 8 9 8
10 11 12 12 11 11 11 10 10 10 10 10 10 9 9 9 9 9 9 9 8 8 8 8 8 8 8 8 8 8 8 8 8 7 8 8 8 8 8 8 8 8 8
9 12 12 12 12 11 11 10 10 10 10 9 9 9 9 9 9 9 9 9 9 8 8 8 8 8 8 8 8 8 8 8 8 8 8 8 8 8 8 8 8 8 8
10 11 12 12 11 11 11 11 10 10 10 10 9 9 8 8 9 8 9 9 9 8 8 8 8 8 8 7 8 8 8 8 8 8 6 7 7 8 8 8 8 8 8
11 12 12 12 11 11 11 10 10 10 10 9 9 9 8 8 8 8 8 9 9 9 8 8 8 8 8 8 8 8 8 7 7 8 8 8 7 8 8 7 7 8 8
11 11 10 12 11 11 10 10 10 10 9 9 9 9 8 8 8 8 9 9 9 9 9 8 8 8 8 8 7 8 7 7 7 7 7 8 7 7 7 7 8 8 8
9 8 10 11 11 11 10 10 10 10 9 9 9 9 8 9 8 8 9 9 9 9 8 8 8 8 8 8 7 8 7 7 8 8 7 7 7 7 6 7 7 7 7
9 8 8 11 11 11 10 10 10 9 10 9 9 9 8 9 9 9 9 10 9 8 8 7 8 8 8 8 8 7 7 7 8 8 7 7 7 7 6 6 6 7 8
9 8 10 11 11 11 10 10 8 6 8 9 8 9 8 8 8 9 10 9 9 8 7 9 8 8 8 8 8 7 7 7 7 8 8 8 7 6 6 6 6 6 7
9 9 9 11 11 11 11 10 8 6 8 7 9 9 9 9 9 9 9 9 9 9 8 9 9 8 8 8 8 7 7 7 7 7 8 7 7 7 6 6 5 5 6
9 8 8 11 11 11 11 11 10 7 7 7 6 9 9 9 9 9 9 9 9 9 9 8 8 8 8 8 8 8 8 8 7 8 7 7 7 7 7 6 6 5 6
9 9 9 10 8 11 11 11 11 11 7 7 7 7 10 10 9 9 9 9 9 9 9 9 9 9 8 8 8 8 8 8 7 7 7 8 7 7 7 7 7 6 6
12 12 12 11 10 9 11 11 11 11 11 8 8 9 11 10 10 9 9 9 9 9 9 9 9 9 9 9 8 8 8 8 8 8 7 8 7 7 7 7 7 7 7
12 11 11 11 11 11 11 11 11 11 11 11 10 10 11 10 10 10 10 9 9 9 8 9 8 9 9 9 9 8 8 8 8 7 8 7 7 7 7 7 7 7 7
12 12 12 11 11 11 11 10 11 10 10 10 10 10 10 10 10 10 9 9 9 9 9 9 8 9 9 8 9 8 8 8 8 7 8 8 8 7 8 7 7 8 8
12 12 11 11 11 11 10 10 10 10 9 9 10 10 10 9 9 9 9 9 9 9 9 9 9 9 9 8 8 8 8 8 8 8 8 9 8 8 8 7 7 8 8
13 13 12 11 11 10 10 10 10 10 10 10 9 9 9 8 9 8 9 9 9 9 9 9 9 9 9 9 8 8 8 8 8 8 9 9 9 8 8 8 8 9 9
14 13 12 12 12 11 10 10 10 10 10 10 9 9 9 9 9 9 9 8 8 8 9 9 9 9 9 9 9 8 8 8 8 8 9 9 9 9 9 9 9 9 9
14 14 13 13 13 12 11 11 11 10 10 9 10 10 9 8 8 9 9 8 8 9 8 9 8 9 9 9 9 8 8 8 8 8 9 9 9 9 9 9 10 10 9
14 15 14 14 13 13 12 12 11 11 10 10 10 10 9 9 8 9 9 9 9 9 9 8 9 9 9 9 9 8 9 9 8 8 8 9 9 9 9 9 10 9 10

GFSSE_700_temp_276.txt.gz
Temp
12 11 12 11 11 11 10 10 10 10 10 9 9 9 9 9 8 8 9 9 9 9 9 9 9 8 9 9 9 9 9 9 9 9 9 9 9 10 10 9 9 9 9
13 12 12 11 11 11 10 10 10 10 10 10 9 9 9 9 9 8 8 9 9 9 8 8 9 9 8 8 8 8 9 9 9 9 9 9 9 10 9 9 9 9 9
13 12 12 11 11 11 10 10 10 10 9 10 9 9 9 9 8 8 8 8 9 9 8 9 8 9 9 9 8 8 9 8 9 9 9 9 10 10 9 9 9 9 9
12 12 12 12 11 11 10 10 10 10 10 10 9 9 9 9 9 8 8 8 9 9 9 9 8 8 8 9 9 8 9 9 8 8 9 9 9 10 9 9 9 9 9
12 12 12 12 11 11 10 10 10 10 10 10 9 9 9 9 9 8 8 9 9 9 9 9 8 8 8 8 8 8 9 8 7 8 8 8 9 10 9 9 9 9 9
12 12 12 12 11 11 11 10 10 10 10 10 9 9 9 9 9 9 9 9 9 9 9 8 8 8 8 8 8 8 8 9 8 9 8 9 9 9 9 9 9 9 9
13 12 11 12 11 11 11 10 10 10 10 10 10 9 9 9 9 9 9 8 9 8 8 8 8 8 8 8 8 8 8 8 9 9 8 9 9 9 9 9 9 9 9
11 12 11 11 11 11 11 10 10 10 10 10 10 9 9 9 9 9 9 9 8 8 8 8 8 8 8 8 8 8 8 8 7 8 8 9 9 9 9 9 9 9 9
10 12 12 12 11 11 11 10 10 10 10 9 9 9 8 9 9 9 9 9 9 9 8 8 8 8 8 8 8 8 8 8 8 8 8 9 9 9 9 9 9 9 9
11 11 12 12 11 11 11 11 10 10 10 9 9 9 8 8 8 9 9 9 9 9 9 8 8 8 8 8 8 8 8 8 7 7 8 8 9 9 9 9 9 9 9
12 12 12 12 12 11 11 11 10 10 10 10 9 9 8 8 8 9 9 9 9 9 9 8 8 8 8 8 8 8 7 7 7 8 7 8 8 8 9 9 9 8 9
10 10 13 12 12 11 11 11 10 10 10 10 9 9 9 9 8 9 9 9 9 9 9 9 8 8 8 8 8 7 7 7 7 7 7 8 8 8 9 9 9 9 8
9 10 10 12 12 11 11 11 11 10 10 10 9 9 9 9 9 9 9 9 9 9 9 9 9 8 8 8 8 8 7 8 7 6 7 8 7 8 7 7 8 8 8
10 10 11 12 12 11 12 11 11 11 10 10 10 9 9 9 9 7 8 9 10 9 8 8 8 8 8 8 7 7 7 8 8 7 7 7 7 7 7 7 7 8 8
10 9 9 12 11 12 12 11 11 11 10 10 10 9 9 8 9 9 8 9 10 8 8 8 8 8 8 8 7 7 7 8 8 7 8 7 7 7 7 6 7 8 8
11 9 9 12 11 11 11 12 11 12 9 10 9 9 9 9 10 9 9 8 9 8 7 9 8 8 8 8 8 8 8 8 8 8 8 7 7 7 7 7 6 6 6
10 10 9 10 11 11 11 11 11 9 9 9 11 10 10 10 10 10 10 9 8 9 9 9 9 8 8 8 8 8 8 8 8 8 8 8 7 7 7 6 6 5 6
10 10 10 10 11 11 11 11 11 11 9 9 10 12 11 10 10 10 10 9 9 9 8 9 9 9 8 8 8 8 8 8 8 8 8 8 8 8 7 7 6 5 6
12 11 11 10 10 12 11 11 11 11 11 9 9 10 12 11 11 10 10 9 9 9 9 9 9 9 8 8 8 9 8 8 8 7 8 8 8 8 7 7 7 7 7
13 12 12 12 11 11 12 11 11 11 11 11 11 10 12 11 10 10 10 9 9 9 9 9 9 9 8 8 8 8 8 8 8 8 8 8 8 8 8 8 7 7 7
13 12 12 12 12 11 12 12 11 12 11 11 12 10 11 11 11 10 10 9 9 9 9 9 9 8 8 8 9 8 8 8 8 8 7 8 8 8 8 7 7 8 8
13 13 13 12 12 12 11 11 11 10 11 11 11 10 10 10 10 10 9 9 9 9 9 9 9 9 8 8 9 9 8 8 8 8 8 8 8 8 8 8 7 8 8
14 14 13 13 12 12 11 11 11 11 10 10 11 11 10 10 10 10 9 9 9 9 8 9 9 8 8 8 9 8 9 8 9 8 8 9 8 8 9 8 8 8 9
15 15 14 14 13 12 11 11 11 11 10 10 10 10 10 9 10 10 10 9 9 9 9 9 9 9 8 8 9 9 9 8 8 8 9 9 9 9 9 9 9 9 9
15 15 15 14 13 13 12 11 11 11 11 10 10 10 10 10 9 10 10 9 9 10 9 9 9 9 9 8 9 8 9 8 8 9 9 9 9 9 9 9 9 11 10
14 15 15 15 14 13 13 12 11 11 11 10 10 10 11 10 9 9 9 9 9 10 10 10 9 9 9 9 9 8 9 9 8 9 9 9 9 9 9 9 9 10 10

GFSSE_700_temp_279.txt.gz
Temp
11 11 11 11 11 10 10 10 10 10 10 9 9 9 9 9 9 9 9 9 9 9 9 9 9 9 8 8 8 8 9 9 9 9 9 9 9 9 9 9 9 9 9
12 11 11 11 11 11 10 10 10 10 10 9 9 9 9 9 9 9 9 9 9 9 9 9 8 9 8 8 8 9 9 9 9 9 9 10 9 9 9 9 9 9 9
12 11 11 11 11 11 10 10 10 10 9 9 9 9 9 9 8 9 9 9 9 9 9 9 8 8 8 8 8 9 9 9 9 9 9 10 9 9 9 9 9 9 9
12 12 12 11 11 11 11 10 10 10 10 9 9 9 9 8 8 9 9 9 9 9 9 8 8 8 8 8 8 9 9 9 9 9 9 9 10 9 9 9 9 9 9
12 12 12 12 11 11 11 10 10 10 10 9 9 9 9 9 8 9 9 9 9 9 9 8 8 8 8 8 8 9 9 9 9 9 9 9 10 9 9 9 9 9 9
12 12 12 12 11 11 11 10 10 10 10 9 9 9 9 9 9 9 9 9 9 9 9 9 8 8 8 8 8 8 8 9 9 9 9 9 9 9 9 9 9 9 9
12 12 12 12 11 11 11 10 10 10 10 10 9 9 9 9 9 9 9 9 9 9 9 9 8 8 8 8 8 8 9 9 9 9 9 9 9 9 9 9 9 9 9
12 12 12 12 11 11 11 11 10 10 10 10 9 9 9 9 9 9 9 8 9 8 9 9 8 8 8 8 8 8 8 8 9 8 9 9 9 9 9 9 9 9 9
11 11 12 12 12 11 11 11 10 10 10 10 9 9 8 9 9 9 9 9 8 8 8 9 8 8 8 8 7 7 7 7 7 8 8 9 9 9 9 9 9 9 9
11 10 11 12 11 11 11 11 10 10 10 9 9 9 9 9 9 9 9 9 9 8 8 8 8 8 8 7 7 7 7 7 8 8 8 8 9 9 9 9 9 9 9
10 11 11 12 12 11 11 11 11 10 10 10 9 9 9 9 9 9 9 9 9 8 8 8 8 8 8 8 7 7 8 7 8 8 8 8 8 9 9 9 9 9 9
13 12 12 12 12 11 11 11 11 11 10 10 9 9 9 9 8 8 9 9 9 8 8 8 8 8 8 8 8 7 8 7 7 8 8 7 8 8 8 8 9 9 9
13 13 12 12 12 12 11 11 11 11 11 10 10 10 9 8 9 8 9 9 9 9 8 8 8 8 8 8 8 7 7 7 8 8 7 7 8 7 8 8 8 8 9
12 12 13 12 12 12 12 11 11 11 11 11 10 10 9 10 9 7 9 9 9 8 8 9 8 8 7 8 8 7 8 7 7 8 8 8 7 7 7 7 7 8 8
11 13 13 12 12 12 12 12 12 11 11 11 10 10 10 10 10 10 9 9 8 9 8 8 8 8 8 7 8 8 8 8 7 8 8 8 7 7 7 7 6 7 8
11 11 13 12 12 12 12 11 11 11 12 12 11 10 10 10 9 9 9 9 9 9 9 9 9 9 8 8 8 8 8 8 8 8 8 7 7 7 7 6 6 7 8
11 10 12 11 11 12 12 12 12 11 11 11 10 9 9 10 10 9 9 9 10 9 9 8 8 9 8 8 8 7 8 9 8 7 7 8 7 8 7 7 6 6 7
11 10 9 11 11 11 11 11 11 11 11 8 10 10 10 10 10 10 9 9 9 9 8 8 8 8 8 8 8 8 8 8 8 8 8 7 7 8 7 7 6 6 6
10 10 11 11 11 11 11 11 11 10 10 10 10 10 10 10 10 10 10 10 9 9 9 9 8 8 8 9 9 8 8 8 8 8 8 7 7 7 7 7 7 7 5
10 12 12 12 12 12 11 12 11 11 10 10 11 11 12 11 10 10 10 10 10 9 10 9 9 9 9 9 9 9 8 8 8 8 8 8 7 7 7 7 7 6 6
13 12 12 12 12 12 12 12 12 11 11 11 10 11 11 12 11 10 10 9 9 9 9 9 9 9 9 9 8 9 8 8 8 8 8 7 8 8 7 7 7 7 7
13 13 13 12 12 12 12 12 12 11 11 11 11 11 11 11 10 10 10 9 9 9 9 9 9 8 9 9 9 9 9 8 8 8 8 8 8 8 8 8 8 8 8
15 14 14 13 12 12 12 12 11 11 12 12 11 11 10 10 10 10 10 9 9 9 9 9 8 8 8 9 9 9 9 9 8 8 8 9 9 9 8 8 8 8 8
15 14 14 13 13 12 12 12 11 11 11 11 10 10 10 10 10 10 9 9 9 9 9 8 8 8 8 9 9 9 9 9 9 8 8 8 9 9 9 8 8 8 9
16 15 15 14 14 13 12 12 12 11 11 10 10 10 10 10 9 10 9 9 9 9 9 8 8 8 8 9 9 9 9 8 9 9 9 8 9 9 9 9 8 8 9
15 15 15 14 14 13 13 12 12 12 11 10 10 10 11 11 10 9 10 9 9 9 8 9 8 9 9 9 9 9 9 9 8 8 9 8 8 9 9 9 9 9 10

GFSSE_700_temp_282.txt.gz
Temp
11 11 10 10 10 10 10 10 10 9 9 9 9 9 8 8 8 8 8 8 9 9 9 9 8 8 8 9 9 9 9 9 9 9 9 9 9 9 9 9 9 9 9
12 11 11 11 10 10 10 10 10 9 9 9 9 9 8 8 9 9 9 9 9 9 9 8 8 9 9 9 9 9 9 9 9 9 9 9 9 9 9 9 9 9 9
12 11 11 11 10 10 10 10 10 10 9 9 9 9 9 9 9 9 9 9 9 9 9 8 9 9 9 9 9 9 9 9 9 9 9 9 9 9 9 9 9 9 9
12 11 11 11 11 10 10 10 10 10 9 9 9 9 9 9 9 9 9 9 9 9 9 9 9 9 9 9 9 9 9 9 9 10 9 9 9 9 9 9 9 9 9
12 11 11 11 11 10 10 10 10 10 10 10 9 9 9 9 9 9 9 9 9 9 9 9 9 9 9 9 9 9 9 9 9 10 10 9 9 9 9 9 9 9 9
12 11 11 11 11 10 10 10 10 10 10 10 10 9 9 9 9 9 9 9 9 9 9 9 9 9 9 9 9 9 8 8 9 9 10 9 9 9 9 9 9 9 9
12 12 11 11 11 11 10 10 10 10 10 10 10 9 9 9 9 9 9 9 9 9 9 9 9 9 8 8 9 9 9 8 9 9 9 10 9 9 9 9 9 9 9
12 12 11 11 11 11 11 10 10 10 10 10 10 9 9 9 9 9 9 9 9 9 9 9 9 8 8 8 8 9 9 9 9 9 9 9 9 9 9 9 9 9 9
11 11 11 11 11 11 11 11 10 10 10 9 9 9 9 9 9 9 9 9 9 8 8 8 8 8 8 8 8 8 9 9 9 9 9 9 9 9 9 9 9 9 9
11 11 11 11 11 11 11 11 10 10 10 9 9 9 9 9 9 9 9 9 9 9 8 8 8 8 8 8 9 8 8 9 9 9 9 9 8 9 9 9 9 9 9
11 11 11 11 11 11 11 11 10 10 10 9 9 9 9 9 9 10 9 9 9 9 9 8 8 8 8 8 8 8 8 8 8 8 9 9 9 8 9 9 9 9 8
11 11 12 11 11 11 11 11 10 10 10 10 9 9 9 8 9 9 9 9 9 9 9 8 8 8 8 8 8 8 8 8 7 8 8 8 9 9 8 9 8 8 8
10 11 11 12 11 11 11 11 10 10 10 10 10 9 9 9 9 8 9 9 9 9 9 8 8 8 8 8 8 8 8 8 8 7 8 8 8 9 8 8 8 8 8
12 11 11 11 11 11 11 11 11 10 10 10 10 10 10 9 9 10 9 9 9 9 9 8 8 8 8 7 8 8 7 8 8 7 7 7 8 8 8 8 8 8 8
12 11 10 11 11 11 11 11 11 11 10 10 10 10 10 9 10 10 10 10 9 9 9 9 8 8 8 8 8 8 7 8 8 7 8 8 7 8 8 8 6 7 7
12 12 12 11 11 11 11 11 11 11 10 10 10 10 10 9 10 10 9 10 9 9 10 9 8 8 8 8 8 8 7 7 7 8 8 8 7 7 7 7 7 6 7
12 13 12 11 11 11 11 11 12 11 10 10 10 10 9 9 9 9 10 10 9 10 9 9 8 8 8 8 9 8 9 8 7 7 7 7 7 7 7 7 6 7 7
12 12 11 11 11 11 11 11 11 11 11 11 11 10 9 9 9 9 9 9 9 9 9 9 9 9 8 8 8 9 9 8 8 7 7 7 7 7 7 7 7 6 7
12 12 11 11 11 10 11 11 11 11 11 11 11 11 10 10 10 9 9 9 9 9 9 9 8 9 8 8 8 8 9 8 8 8 7 7 7 7 7 7 6 6 6
12 12 11 11 11 11 11 11 11 11 11 11 11 11 11 10 10 10 9 9 8 9 9 9 9 9 9 8 8 8 9 9 9 8 7 7 7 7 7 7 6 6 6
13 12 12 11 11 11 11 11 11 11 11 11 11 10 10 11 10 9 10 9 9 9 8 9 9 9 9 9 9 8 8 8 9 8 8 8 8 7 7 7 7 6 6
13 13 12 12 11 11 11 11 10 10 10 10 11 11 10 10 10 10 9 9 9 9 8 8 9 8 9 9 9 9 8 9 8 8 8 8 8 7 8 7 7 7 6
13 13 13 12 12 11 11 11 11 11 11 10 11 11 10 10 10 10 10 9 9 9 8 8 8 9 9 9 9 9 9 9 8 9 8 8 8 8 8 7 7 7 6
14 14 13 13 13 12 12 11 11 11 11 10 10 10 10 10 10 9 9 9 9 9 9 8 8 8 8 8 9 8 9 9 9 9 9 8 8 9 8 8 8 8 8
15 14 14 13 13 12 12 12 12 11 11 10 10 11 11 10 9 9 9 9 9 8 8 9 8 9 8 8 8 8 9 9 9 8 8 8 9 9 9 8 8 8 9
15 15 15 14 13 13 12 12 12 12 11 11 11 11 10 10 10 9 9 9 9 8 8 8 8 8 9 8 8 8 8 9 9 9 8 8 8 9 9 8 8 9 9